WX2DX-2 Weather Reports


Display with metric or nautical units.
time (UTC)temp
F
wind
direction
speed
MPH
gust
MPH
rain 1hr
in
rain 24hr
in
rain mn
in
humidity
%
barometer
mb
20260507053038 46 309 1.0 4.0 0.00 0.20 0.00 64 1011.4
20260507051535 46 289 0.0 1.0 0.00 0.20 0.00 64 1011.6
20260507050033 47 334 1.0 9.0 0.00 0.20 0.00 63 1011.5
20260507044533 47 302 2.0 7.0 0.00 0.20 0.00 61 1011.5
20260507043030 47 309 1.0 4.0 0.00 0.20 0.00 59 1011.3
20260507041526 47 296 1.0 3.0 0.00 0.20 0.00 60 1011.4
20260507040023 48 305 1.0 3.0 0.00 0.20 0.00 58 1010.9
20260507034531 48 331 5.0 12.0 0.00 0.20 0.20 56 1011.3
20260507033021 48 333 1.0 3.0 0.00 0.20 0.20 59 1011.2
20260507031519 48 269 0.0 10.0 0.00 0.20 0.20 60 1011.0
20260507030016 49 329 3.0 8.0 0.00 0.20 0.20 64 1010.8
20260507024518 49 289 1.0 5.0 0.00 0.20 0.20 70 1010.7
20260507023011 49 350 3.0 8.0 0.00 0.20 0.20 69 1010.6
20260507021510 50 274 4.0 12.0 0.00 0.20 0.20 72 1010.4
20260507020041 50 343 1.0 8.0 0.00 0.20 0.20 81 1010.3
20260507014520 50 284 1.0 4.0 0.00 0.20 0.20 80 1010.5
20260507013023 51 225 1.0 8.0 0.00 0.20 0.20 81 1010.5
20260507011530 51 263 1.0 3.0 0.00 0.20 0.20 84 1010.6
20260507010017 51 340 0.0 1.0 0.00 0.20 0.20 83 1010.5
20260507004516 51 325 1.0 3.0 0.00 0.20 0.20 84 1010.4
20260507003014 51 313 0.0 2.0 0.00 0.20 0.20 84 1010.3
20260507001536 51 304 0.0 2.0 0.00 0.20 0.20 83 1009.8
20260507000014 52 304 0.0 2.0 0.00 0.20 0.20 81 1009.7
20260506234508 52 291 2.0 8.0 0.00 0.20 0.20 81 1009.3
20260506233007 52 320 2.0 5.0 0.00 0.20 0.20 80 1009.0
20260506231505 52 277 1.0 8.0 0.00 0.20 0.20 81 1008.8
20260506230004 52 250 1.0 5.0 0.00 0.20 0.20 81 1008.7
20260506224503 52 331 2.0 6.0 0.00 0.20 0.20 81 1009.0
20260506223104 53 333 3.0 6.0 0.00 0.20 0.20 82 1008.8
20260506221610 54 321 3.0 9.0 0.00 0.20 0.20 82 1008.2
20260506220054 54 316 2.0 10.0 0.00 0.20 0.20 81 1008.1
20260506214554 55 295 1.0 8.0 0.00 0.20 0.20 82 1008.0
20260506213049 55 283 4.0 10.0 0.00 0.20 0.20 81 1007.7
20260506211546 55 272 3.0 8.0 0.00 0.20 0.20 83 1007.5
20260506210053 56 287 4.0 9.0 0.00 0.20 0.20 82 1007.0
20260506204546 56 234 6.0 11.0 0.00 0.21 0.20 81 1006.9
20260506203042 56 290 4.0 16.0 0.00 0.21 0.20 82 1006.8
20260506201539 57 258 4.0 15.0 0.00 0.21 0.20 84 1006.7
20260506200038 57 229 5.0 13.0 0.00 0.21 0.20 85 1006.6
20260506194536 57 213 5.0 12.0 0.00 0.21 0.20 87 1006.3
20260506193041 56 250 5.0 12.0 0.00 0.21 0.20 87 1006.2
20260506191531 57 275 4.0 13.0 0.00 0.21 0.20 88 1006.1
20260506190033 59 279 4.0 11.0 0.00 0.21 0.20 86 1005.7
20260506184537 59 267 7.0 14.0 0.00 0.21 0.20 87 1005.6
20260506183030 59 223 3.0 8.0 0.00 0.21 0.20 90 1005.6
20260506181537 59 235 5.0 10.0 0.01 0.21 0.20 92 1005.5
20260506180028 58 250 3.0 10.0 0.01 0.21 0.20 92 1005.4
20260506174530 58 331 4.0 11.0 0.01 0.21 0.20 93 1005.4
20260506173028 58 267 2.0 12.0 0.02 0.21 0.20 94 1005.4
20260506171532 58 234 3.0 8.0 0.01 0.20 0.19 95 1005.2
20260506170029 58 242 3.0 7.0 0.01 0.20 0.19 94 1005.0
20260506164542 58 239 3.0 5.0 0.01 0.20 0.19 94 1004.9
20260506163023 58 197 3.0 7.0 0.00 0.19 0.18 94 1004.9
20260506161524 58 229 3.0 7.0 0.01 0.19 0.18 94 1005.0
20260506160023 58 202 2.0 6.0 0.01 0.19 0.18 94 1004.9
20260506154520 57 247 3.0 7.0 0.01 0.19 0.18 94 1004.8
20260506153021 57 239 0.0 3.0 0.01 0.19 0.18 94 1004.8
20260506151518 57 190 1.0 3.0 0.00 0.18 0.17 93 1004.7
20260506150019 57 241 0.0 2.0 0.00 0.18 0.17 93 1004.6
20260506144524 57 232 1.0 3.0 0.00 0.18 0.17 93 1004.4
20260506143019 56 250 0.0 3.0 0.01 0.18 0.17 93 1004.5
20260506141526 56 242 0.0 2.0 0.02 0.18 0.17 93 1004.4
20260506140017 56 213 2.0 4.0 0.03 0.18 0.17 92 1004.4
20260506134515 56 257 2.0 4.0 0.03 0.18 0.17 92 1004.2
20260506133014 56 192 1.0 4.0 0.02 0.17 0.16 93 1004.4
20260506131515 56 225 1.0 4.0 0.02 0.16 0.15 93 1004.6
20260506130015 56 177 1.0 3.0 0.03 0.15 0.14 92 1004.6
20260506124512 56 173 1.0 3.0 0.05 0.15 0.14 93 1004.3
20260506123014 56 146 1.0 3.0 0.07 0.15 0.14 93 1004.6
20260506121514 56 114 0.0 1.0 0.09 0.14 0.13 94 1004.4
20260506120020 56 213 0.0 0.0 0.08 0.12 0.11 94 1004.8
20260506114508 56 213 0.0 0.0 0.07 0.10 0.09 94 1004.9
20260506113006 56 213 0.0 0.0 0.04 0.07 0.06 93 1005.0
20260506111505 56 214 0.0 0.0 0.02 0.04 0.03 93 1005.0
20260506110007 56 182 0.0 1.0 0.03 0.04 0.03 92 1004.6
20260506104503 56 115 1.0 2.0 0.02 0.05 0.02 92 1004.4
20260506103005 56 138 2.0 3.0 0.02 0.05 0.02 91 1004.7
20260506101600 56 205 0.0 1.0 0.01 0.04 0.01 90 1004.6
20260506100112 56 205 0.0 2.0 0.00 0.03 0.00 89 1004.7
20260506094603 57 163 0.0 5.0 0.00 0.03 0.00 88 1004.6
20260506093100 57 228 0.0 1.0 0.00 0.03 0.00 87 1004.4
20260506091556 58 228 0.0 1.0 0.00 0.03 0.00 85 1004.6
20260506090054 59 232 0.0 2.0 0.00 0.03 0.00 81 1004.5
20260506084618 60 183 1.0 2.0 0.00 0.03 0.00 75 1004.8
20260506083050 61 268 0.0 5.0 0.00 0.03 0.00 71 1005.0
20260506081556 62 240 2.0 9.0 0.00 0.03 0.00 69 1005.4
20260506073047 63 283 7.0 20.0 0.00 0.05 0.00 66 1005.2
20260506071546 63 252 6.0 15.0 0.00 0.05 0.00 64 1005.2
20260506061535 58 193 1.0 3.0 0.00 0.05 0.00 73 1005.8